Location: Mount Kobau Star Party
(49.1167°N, 119.7333°W)
Time: 17:51:59
(UTC-08:00)

Envisat - Visible Passes

Search period start: 19 February 2018 00:00
Search period end: 01 March 2018 00:00
Orbit: 764 x 766 km, 98.2° (Epoch: 19 February)

Date Brightness Start Highest point End Pass type
(mag) Time Alt. Az. Time Alt. Az. Time Alt. Az.
19 Feb 3.1 18:51:10 10° SE 18:56:06 54° ENE 19:01:03 10° N visible
19 Feb 5.2 20:31:27 10° SW 20:35:27 23° W 20:39:28 10° NW visible
20 Feb 3.9 18:15:19 10° ESE 18:19:37 29° ENE 18:23:56 10° N visible
20 Feb 4.0 19:53:35 10° S 19:58:26 46° W 20:03:21 10° NNW visible
21 Feb 2.9 19:16:33 10° SSE 19:21:38 88° ENE 19:26:44 10° NNW visible
21 Feb 5.8 20:58:45 10° WSW 21:01:22 14° W 21:03:59 10° NW visible
22 Feb 3.3 18:40:13 10° SE 18:45:01 45° ENE 18:49:50 10° N visible
22 Feb 4.9 20:19:52 10° SSW 20:24:12 28° W 20:28:34 10° NW visible
23 Feb 4.1 18:04:35 10° ESE 18:08:35 24° ENE 18:12:35 10° N visible
23 Feb 3.6 19:42:16 10° S 19:47:15 57° W 19:52:16 10° NNW visible
24 Feb 2.9 19:05:27 10° SSE 19:10:30 73° ENE 19:15:35 10° N visible
24 Feb 5.6 20:46:45 10° SW 20:50:05 17° W 20:53:25 10° NW visible
25 Feb 3.5 18:29:19 10° SE 18:33:56 37° ENE 18:38:35 10° N visible
25 Feb 4.5 20:08:23 10° SSW 20:12:59 34° W 20:17:37 10° NNW visible
26 Feb 3.2 19:31:02 10° S 19:36:05 70° WSW 19:41:11 10° NNW visible
27 Feb 3.0 18:54:25 10° SSE 18:59:23 59° ENE 19:04:24 10° N visible
27 Feb 5.3 20:34:58 10° SW 20:38:48 21° W 20:42:39 10° NW visible
28 Feb 3.8 18:18:29 10° ESE 18:22:53 31° ENE 18:27:18 10° N visible
28 Feb 4.1 19:56:58 10° S 20:01:47 42° W 20:06:36 10° NNW visible
